Weather History for Pinedale, WY

Change the Weather History Date:

Wednesday, August 7, 2013

  Actual Average (KBPI) Record (KBPI)
Temperature  
Mean Temperature 58 °F 62 °F  
Max Temperature 82 °F 81 °F 94 °F (2001)
Min Temperature 35 °F 43 °F 30 °F (1976)
Degree Days  
Heating Degree Days 6 4  
Month to date heating degree days 24  
Since 1 June heating degree days 446  
Since 1 July heating degree days 141  
Cooling Degree Days 0 1  
Month to date cooling degree days 7  
Year to date cooling degree days 31  
Since 1 June cooling degree days 31  
Growing Degree Days 8 (Base 50)    
Moisture  
Dew Point 29 °F    
Average Humidity 38    
Maximum Humidity 87    
Minimum Humidity 10    
Precipitation  
Precipitation 0.00 in 0.02 in 0.74 in (2003)
Month to date precipitation 0.16  
Year to date precipitation 4.13  
Sea Level Pressure  
Sea Level Pressure 30.20 in    
Wind  
Wind Speed 6 mph (WNW)    
Max Wind Speed 18 mph    
Max Gust Speed 28 mph    
Visibility 10 miles    
Events      
T = Trace of Precipitation, MM = Missing Value Source: NWS Daily Summary

Daily Weather History Graph

Daily Weather History Graph

Search for Another Location

Airport:

Trip Planner

Search our weather history database for the weather conditions in past years. The results will help you decide how hot, cold, wet, or windy it might be!

Date:

Astronomy

Aug. 07, 2013 Rise Set
Actual Time 6:17 AM MDT 8:31 PM MDT
Civil Twilight 5:45 AM MDT 9:03 PM MDT
Nautical Twilight 5:07 AM MDT 9:41 PM MDT
Astronomical Twilight 4:24 AM MDT 10:24 PM MDT
Moon 7:11 AM MDT (8/7) 8:37 PM MDT (8/7)
Length of Visible Light 15h 17m
Length of Day
14h 14m
New Moon, 1% of the Moon is Illuminated
Aug 7
New Moon
Aug 14
First Quarter
Aug 20
Full
Aug 28
Last Quarter
Sep 5
New

Hourly Weather History & Observations

Time (MDT) Temp. Windchill Dew Point Humidity Pressure Visibility Wind Dir Wind Speed Gust Speed Precip Events Conditions
12:15 AM 46.4 °F 45.2 °F 32.0 °F 57% 30.23 in 10.0 mi West 3.5 mph - N/A   Clear
12:35 AM 48.2 °F - 32.0 °F 54% 30.23 in 10.0 mi WNW 3.5 mph - N/A   Clear
12:55 AM 46.4 °F 43.5 °F 32.0 °F 57% 30.23 in 10.0 mi West 5.8 mph - N/A   Clear
1:15 AM 46.4 °F 44.3 °F 30.2 °F 53% 30.23 in 10.0 mi West 4.6 mph - N/A   Clear
1:35 AM 44.6 °F 40.7 °F 30.2 °F 57% 30.22 in 10.0 mi West 6.9 mph - N/A   Clear
1:55 AM 44.6 °F 41.4 °F 32.0 °F 61% 30.22 in 10.0 mi West 5.8 mph - N/A   Clear
2:15 AM 44.6 °F 40.2 °F 30.2 °F 57% 30.22 in 10.0 mi WNW 8.1 mph - N/A   Clear
2:35 AM 44.6 °F 42.2 °F 32.0 °F 61% 30.23 in 10.0 mi WNW 4.6 mph - N/A   Clear
2:55 AM 44.6 °F 41.4 °F 32.0 °F 61% 30.23 in 10.0 mi West 5.8 mph - N/A   Clear
3:15 AM 44.6 °F 41.4 °F 32.0 °F 61% 30.22 in 10.0 mi West 5.8 mph - N/A   Clear
3:35 AM 41.0 °F 37.1 °F 32.0 °F 70% 30.23 in 10.0 mi West 5.8 mph - N/A   Clear
3:55 AM 41.0 °F 38.0 °F 30.2 °F 65% 30.23 in 10.0 mi WNW 4.6 mph - N/A   Clear
4:15 AM 41.0 °F 37.1 °F 32.0 °F 70% 30.23 in 10.0 mi NW 5.8 mph - N/A   Clear
4:35 AM 41.0 °F 38.0 °F 32.0 °F 70% 30.23 in 10.0 mi WNW 4.6 mph - N/A   Clear
4:55 AM 37.4 °F 32.8 °F 32.0 °F 81% 30.23 in 10.0 mi NW 5.8 mph - N/A   Clear
5:15 AM 37.4 °F 32.8 °F 32.0 °F 81% 30.23 in 10.0 mi NW 5.8 mph - N/A   Clear
5:35 AM 41.0 °F 38.0 °F 32.0 °F 70% 30.23 in 10.0 mi WNW 4.6 mph - N/A   Clear
5:55 AM 37.4 °F 33.8 °F 32.0 °F 81% 30.24 in 10.0 mi West 4.6 mph - N/A   Clear
6:15 AM 35.6 °F 30.7 °F 32.0 °F 87% 30.24 in 10.0 mi West 5.8 mph - N/A   Clear
6:35 AM 37.4 °F 33.8 °F 32.0 °F 81% 30.24 in 10.0 mi West 4.6 mph - N/A   Clear
6:55 AM 39.2 °F 35.9 °F 32.0 °F 75% 30.24 in 10.0 mi West 4.6 mph - N/A   Clear
7:15 AM 41.0 °F - 32.0 °F 70% 30.25 in 10.0 mi Calm Calm - N/A   Clear
7:35 AM 42.8 °F - 32.0 °F 66% 30.26 in 10.0 mi Calm Calm - N/A   Clear
7:55 AM 46.4 °F 45.2 °F 32.0 °F 57% 30.26 in 10.0 mi NW 3.5 mph - N/A   Clear
8:15 AM 50.0 °F - 33.8 °F 54% 30.26 in 10.0 mi Calm Calm - N/A   Clear
8:35 AM 53.6 °F - 33.8 °F 47% 30.26 in 10.0 mi Calm Calm - N/A   Clear
8:55 AM 57.2 °F - 32.0 °F 38% 30.26 in 10.0 mi Calm Calm - N/A   Clear
9:15 AM 60.8 °F - 32.0 °F 34% 30.25 in 10.0 mi Calm Calm - N/A   Clear
9:35 AM 64.4 °F - 32.0 °F 30% 30.25 in 10.0 mi Calm Calm - N/A   Clear
9:55 AM 66.2 °F - 33.8 °F 30% 30.25 in 10.0 mi East 3.5 mph - N/A   Clear
10:15 AM 68.0 °F - 33.8 °F 28% 30.25 in 10.0 mi SE 3.5 mph - N/A   Clear
10:35 AM 69.8 °F - 35.6 °F 28% 30.24 in 10.0 mi Calm Calm - N/A   Clear
10:55 AM 69.8 °F - 33.8 °F 27% 30.24 in 10.0 mi Calm Calm - N/A   Clear
11:15 AM 71.6 °F - 32.0 °F 23% 30.23 in 10.0 mi South 4.6 mph - N/A   Clear
11:35 AM 73.4 °F - 32.0 °F 22% 30.22 in 10.0 mi SE 4.6 mph - N/A   Clear
11:55 AM 73.4 °F - 30.2 °F 20% 30.22 in 10.0 mi Calm Calm - N/A   Clear
12:15 PM 75.2 °F - 28.4 °F 18% 30.21 in 10.0 mi North 5.8 mph - N/A   Clear
12:35 PM 77.0 °F - 28.4 °F 17% 30.21 in 10.0 mi NE 6.9 mph - N/A   Clear
12:55 PM 77.0 °F - 26.6 °F 16% 30.20 in 10.0 mi SSE 3.5 mph - N/A   Clear
1:15 PM 78.8 °F - 26.6 °F 15% 30.19 in 10.0 mi NW 5.8 mph - N/A   Clear
1:35 PM 78.8 °F - 26.6 °F 15% 30.19 in 10.0 mi NW 8.1 mph 16.1 mph N/A   Clear
1:55 PM 77.0 °F - 26.6 °F 16% 30.18 in 10.0 mi Calm Calm - N/A   Clear
2:15 PM 80.6 °F - 26.6 °F 14% 30.18 in 10.0 mi NW 10.4 mph - N/A   Clear
2:35 PM 80.6 °F - 24.8 °F 13% 30.17 in 10.0 mi NNW 10.4 mph 20.7 mph N/A   Clear
2:55 PM 80.6 °F - 23.0 °F 12% 30.16 in 10.0 mi NNW 18.4 mph 23.0 mph N/A   Clear
3:15 PM 80.6 °F - 23.0 °F 12% 30.16 in 10.0 mi NW 12.7 mph 23.0 mph N/A   Clear
3:35 PM 78.8 °F - 21.2 °F 12% 30.15 in 10.0 mi NW 13.8 mph 17.3 mph N/A   Clear
3:55 PM 80.6 °F - 19.4 °F 10% 30.14 in 10.0 mi NNW 17.3 mph 23.0 mph N/A   Clear
4:15 PM 82.4 °F - 21.2 °F 10% 30.14 in 10.0 mi WNW 17.3 mph 25.3 mph N/A   Clear
4:35 PM 78.8 °F - 21.2 °F 12% 30.14 in 10.0 mi NNW 8.1 mph - N/A   Clear
4:55 PM 80.6 °F - 21.2 °F 11% 30.13 in 10.0 mi NW 10.4 mph 27.6 mph N/A   Clear
5:15 PM 80.6 °F - 21.2 °F 11% 30.13 in 10.0 mi NW 12.7 mph - N/A   Clear
5:35 PM 78.8 °F - 23.0 °F 13% 30.13 in 10.0 mi NNW 6.9 mph - N/A   Clear
5:55 PM 78.8 °F - 24.8 °F 14% 30.13 in 10.0 mi NW 13.8 mph - N/A   Clear
6:15 PM 77.0 °F - 26.6 °F 16% 30.13 in 10.0 mi NW 11.5 mph 17.3 mph N/A   Clear
6:35 PM 78.8 °F - 26.6 °F 15% 30.13 in 10.0 mi NW 11.5 mph - N/A   Clear
6:55 PM 78.8 °F - 23.0 °F 13% 30.13 in 10.0 mi WNW 13.8 mph - N/A   Clear
7:15 PM 77.0 °F - 23.0 °F 13% 30.13 in 10.0 mi NW 10.4 mph - N/A   Clear
7:35 PM 73.4 °F - 26.6 °F 18% 30.14 in 10.0 mi WNW 9.2 mph - N/A   Clear
7:55 PM 71.6 °F - 28.4 °F 20% 30.14 in 10.0 mi NW 11.5 mph - N/A   Clear
8:15 PM 69.8 °F - 30.2 °F 23% 30.14 in 10.0 mi NW 11.5 mph - N/A   Clear
8:35 PM 68.0 °F - 32.0 °F 26% 30.14 in 10.0 mi NW 8.1 mph - N/A   Clear
8:55 PM 64.4 °F - 32.0 °F 30% 30.15 in 10.0 mi WNW 5.8 mph - N/A   Clear
9:15 PM 62.6 °F - 32.0 °F 32% 30.16 in 10.0 mi NW 9.2 mph - N/A   Scattered Clouds
9:35 PM 62.6 °F - 28.4 °F 27% 30.16 in 10.0 mi WNW 9.2 mph - N/A   Scattered Clouds
9:55 PM 59.0 °F - 28.4 °F 31% 30.17 in 10.0 mi WNW 8.1 mph - N/A   Mostly Cloudy
10:15 PM 55.4 °F - 30.2 °F 38% 30.18 in 10.0 mi NNW 8.1 mph - N/A   Mostly Cloudy
10:35 PM 55.4 °F - 28.4 °F 36% 30.18 in 10.0 mi Calm Calm - N/A   Overcast
10:55 PM 53.6 °F - 26.6 °F 35% 30.18 in 10.0 mi WSW 8.1 mph - N/A   Scattered Clouds
11:15 PM 53.6 °F - 26.6 °F 35% 30.18 in 10.0 mi West 6.9 mph - N/A   Clear
11:35 PM 51.8 °F - 26.6 °F 38% 30.18 in 10.0 mi WNW 8.1 mph - N/A   Clear
11:55 PM 50.0 °F - 26.6 °F 40% 30.19 in 10.0 mi Calm Calm - N/A   Clear